Regional Weather Roundup
Issued by NWS

Home | Current Version | Previous Version | Text Only | Print | Product List | Glossary Off
Versions: 1 2 3 4 5 6 7 8 9 10 11 12 13 14 15 16 17 18 19 20 21 22 23 24 25 26 27 28 29 30 31 32 33 34 35 36 37 38 39 40 41 42 43 44 45 46 47 48 49 50

000
ASUS43 KDMX 032207
RWRIA

WEATHER ROUNDUP FOR IOWA
NATIONAL WEATHER SERVICE DES MOINES IA
500 PM CDT THU SEP 03 2015

NOTE: "FAIR" INDICATES FEW OR NO CLOUDS BELOW 12,000 FEET WITH NO
SIGNIFICANT WEATHER AND/OR OBSTRUCTIONS TO VISIBILITY.

* - THESE STATIONS ARE NOT NWS STATIONS...THUS NOT UNDER NWS
QUALITY CONTROL.  THEY ALSO DO NOT REPORT WEATHER SUCH
AS PRECIPITATION OR FOG.

IAZ001>003-012>014-020>022-031>034-043>046-032300-
   NORTHWEST IOWA

CITY           SKY/WX    TMP DP  RH WIND       PRES   REMARKS
CARROLL *      SUNNY     88  75  66 S12       29.84S HX  97
CHEROKEE *     SUNNY     86  75  70 S10       29.82S HX  95
DENISON *      SUNNY     86  73  66 S9G18     29.81S HX  93
LE MARS *      SUNNY     86  75  70 S12       29.80S HX  95
ORANGE CITY *  SUNNY     88  73  62 SE9       29.81S HX  96
SHELDON *      SUNNY     86  73  66 S12G18    29.80F HX  93
SIOUX CITY     SUNNY     88  67  49 SE12      29.78F HX  91
SPENCER        MOSUNNY   87  73  62 S13       29.82F HX  94
STORM LAKE *   SUNNY     86  75  70 S12       29.84S HX  95
$$

IAZ055>058-069>071-079>083-090>094-032300-
   SOUTHWEST IOWA

CITY           SKY/WX    TMP DP  RH WIND       PRES   REMARKS
ATLANTIC *     SUNNY     88  73  62 S12G21    29.84S HX  96
AUDUBON *      SUNNY     88  75  66 S8        29.86S HX  97
CLARINDA *     SUNNY     90  73  58 S14G20    29.86S HX  98
COUNCIL BLFS * SUNNY     90  73  58 SE15G21   29.82F HX  98
CRESTON *      SUNNY     86  73  66 S15       29.89S HX  93
LAMONI         SUNNY     89  70  53 S12       29.89S HX  94
RED OAK *      SUNNY     90  73  58 S12       29.84S HX  98
SHENANDOAH *   SUNNY     91  72  52 S10G22    29.84S HX  98
$$

IAZ047>049-059>061-072>074-084-032300-
   CENTRAL IOWA

CITY           SKY/WX    TMP DP  RH WIND       PRES   REMARKS
AMES           MOSUNNY   88  72  58 S9        29.85F HX  94
ANKENY *       SUNNY     90  72  55 S13       29.85F HX  96
CHARITON *     SUNNY     88  72  58 S14       29.88F HX  94
DES MOINES     MOSUNNY   91  70  49 S13       29.85F HX  96
GRINNELL*      SUNNY     88  70  55 S5        29.89S HX  92
KNOXVILLE *    SUNNY     88  73  62 S9        29.86F HX  96
MARSHALLTOWN   MOSUNNY   88  74  63 S8        29.87S HX  96
PELLA *        SUNNY     91  75  59 S10       29.88F HX 102
PERRY *          N/A     90  72  55 S6        29.85S HX  96
$$

IAZ004>006-015-016-023>025-035-036-032300-
   NORTH CENTRAL IOWA

CITY           SKY/WX    TMP DP  RH WIND       PRES   REMARKS
ALGONA *       MOSUNNY   86  73  66 SE8G16    29.84S HX  93
CLARION *      MOSUNNY   88  73  62 S12G17    29.85F HX  96
ESTHERVILLE    MOSUNNY   84  73  69 SE8       29.84S HX  90
FORT DODGE *   SUNNY     90  72  55 S10       29.84F HX  96
MASON CITY     SUNNY     88  75  65 SE10      29.88S HX  97
FOREST CITY *  SUNNY     88  72  58 SE8       29.86S HX  94
IOWA FALLS *     N/A     90  73  58 S8        29.88S HX  98
$$

IAZ007>011-017>019-026>030-037>042-050>054-066-032300-
   NORTHEAST IOWA

CITY           SKY/WX    TMP DP  RH WIND       PRES   REMARKS
CEDAR RAPIDS   MOSUNNY   88  75  65 S9        29.88S HX  97
CHARLES CITY * SUNNY     88  75  66 S6G12     29.88S HX  97
CLINTON *      SUNNY     90  73  58 W9        29.91S HX  98
DECORAH *      MOSUNNY   86  75  70 SE5       29.88S HX  95
DUBUQUE        MOSUNNY   88  72  58 S6        29.91S HX  94
MONTICELLO *   SUNNY     88  75  66 VRB5      29.88F HX  97
OELWEIN *      SUNNY     88  73  62 SW9       29.89S HX  96
WATERLOO       SUNNY     90  74  59 S9        29.86S HX  99
$$

IAZ064-065-067-068-078-032300-
   EAST CENTRAL IOWA

CITY           SKY/WX    TMP DP  RH WIND       PRES   REMARKS
DAVENPORT      SUNNY     89  70  53 SW6       29.89F HX  94
IOWA CITY      MOSUNNY   90  70  51 S7        29.88F HX  95
MT. PLEASANT * SUNNY     95  61  31 SW6       29.89F HX  95
MUSCATINE *    SUNNY     93  66  40 SW6G13    29.88F HX  96
QUAD CITIES    SUNNY     92  68  45 W9        29.88S HX  96
$$

IAZ062-063-075>077-085>089-095>099-032300-
   SOUTHEAST IOWA

CITY           SKY/WX    TMP DP  RH WIND       PRES   REMARKS
BURLINGTON     MOSUNNY   92  67  43 W6        29.89F HAZE    HX  95
FAIRFIELD *    SUNNY     91  68  46 SW8       29.89S HX  95
FORT MADISON * SUNNY     91  70  49 SW3       29.90F HX  97
KEOKUK *       SUNNY     93  66  40 SW9       29.89S HX  96
OSKALOOSA *      N/A     91  68  46 S7        29.89S HX  95
CENTERVILLE *  SUNNY     88  70  55 S12       29.91S HX  92
OTTUMWA        SUNNY     89  71  55 SW10      29.87S HX  95
WASHINGTON *     N/A    N/A N/A N/A MISG        N/A
$$

ABBREVIATIONS USED IN REMARKS
   TC - TEMPERATURES IN CELSIUS
  WCI - WIND CHILL INDEX
   HX - HEAT INDEX
  VSB - VISIBILITY
$$



USA.gov is the U.S. government's official web portal to all federal, state and local government web resources and services.